Simultaneous Nadir Overpasses (SNOs) Predictions

Prediction of SNOs between GOES-15 and METOP-C Satellite Orbit:

Table of predicted SNOs for the next 14.0 days since TLE Epoch: 8/2/2019
Index Date Time (GOES-15) GOES-15 Lat,Lon METOP-C Lat,Lon Distance(km) Time Diff (sec)
1 08/03/2019 05:46:36 0.05,-128.29 0.91,-124.41 441.87 80
2 08/04/2019 18:08:07 -0.01,-128.32 0.15,-128.96 72.92 80
3 08/05/2019 17:44:49 -0.04,-128.34 -1.01,-123.98 497.56 80
4 08/07/2019 06:06:28 0.00,-128.36 -0.07,-128.56 23.65 80
5 08/09/2019 18:02:01 0.01,-128.40 -0.05,-128.13 30.75 80
6 08/11/2019 06:23:41 -0.05,-128.41 -0.99,-132.72 490.52 80
7 08/12/2019 06:00:22 -0.02,-128.42 0.12,-127.73 78.87 80
8 08/13/2019 18:21:53 0.06,-128.44 0.92,-132.28 437.79 80
9 08/14/2019 17:58:34 0.03,-128.45 -0.24,-127.30 131.74 80
10 08/16/2019 06:20:14 -0.07,-128.46 -0.86,-131.88 389.92 80




NCC Satellite Simultaneous Nadir Overpasses (SNOs) Prediction Service
